星链-36655(STARLINK-36655)

导读

STARLINK-36655是美国SpaceX公司星链星座的第二代卫星,于2026年2月16日发射入轨。作为低轨宽带通信卫星,它配备增强型相控阵天线与激光星间链路,可提供高速低延迟互联网接入,单星容量超100 Gbps,延迟低于20毫秒。卫星采用氪离子霍尔推进,具备自主避撞能力,寿命末期将主动离轨,在大气层中完全烧毁,减少空间碎片影响,服务全球宽带覆盖,支持民用与军事多场景应用。

Basic Information
目录编号:
67834
目录名称:
STARLINK-36655
国际标识:
2026-033P
轨道中心:
EARTH
卫星名称:
星链-36655
卫星全名:
星链-36655(STARLINK-36655)
卫星状态:
在轨 (已飞行201 天)
发射日期:
2026-02-16 UTC
国别 :
美国 (US)
星等 :
--
Orbit Information
数据来源 国际轨道数据
星历时间: 2026-09-05T13:05:18+0800
8小时前
查看轨道信息
半长轴: 6861.182km
偏心率: 0.0002112
轨道倾角: 43.003°
近地点辐角 248.121°
升交点赤经 332.854°
平近点角 111.941°
近地点: 481.595km
远地点: 484.495km
周期: 94.267分钟
每日圈数: 15.275817
Detailed Information
固有亮度:
5
最大亮度:
2.5
卫星平台:
Starlink V1.0
覆盖范围:
全球
运营商:
太空探索技术公司
运营商所在国:
美国
制造商(研发单位):
太空探索技术公司
制造商所在国:
美国
使用方式:
暂无
Satellite Introduction
Starlink 计划是 SpaceX 推出的全球卫星互联网项目,通过发射低轨道卫星,为全球尤其是偏远地区提供高速、低延迟的互联网服务。自 2019 年起,Starlink 已部署数千颗卫星,旨在缩小全球数字鸿沟,推动互联网普及。该项目还为军事、航空等行业提供通信支持,带来广泛经济效益。
2D Orbit Map
3D Orbit Map
Orbit Altitude Analysis Chart
Orbit Inclination Analysis Chart
Orbit Comprehensive Analysis Chart
View Comprehensive Chart
Conjunction Data List
Event ID Objects TCA Miss Dist (km) Collision Risk Probability Collision Risk Index (CRI) Action
CDM_260906-111805-306306-783421
2026-09-06T
11:18:16+0000
2.932 km
极远距离
1.212534E-6 低风险 0.37